This demonstration page uses our WeatherBlox Daily Observations layout. Learn more.

Left ArrowRight Arrow

39.51506, -84.39828

Hourly Observations for January 2, 2021

Temp ( °F °C ) Dew Point ( °F °C ) Humidity (%) Winds ( mph kmh ) Pressure ( in mb ) Visibility ( mi km ) Precip ( " mm )
12:15 am 00:15 Partly Cloudy 45 7.4 41 5 85 85 WSW 16 26 29.86 1011 10 16.0934 N/A
12:35 am 00:35 Cloudy 46 7.5 41 5.1 85 85 SW 10 17 29.87 1011 10 16.0934 N/A
12:55 am 00:55 Cloudy 46 7.5 41 5 84 84 SW 13 20 29.88 1012 10 16.0934 N/A
1:15 am 01:15 Cloudy with Light Rain 45 7 42 5.5 90 90 WSW 17 28 29.89 1012 7 11.26538 N/A
1:35 am 01:35 Cloudy 45 7.2 41 4.8 85 85 WSW 20 31 29.91 1013 10 16.0934 N/A
1:55 am 01:55 Cloudy 45 7 39 3.9 81 81 WSW 23 37 29.92 1013 10 16.0934 N/A
2:15 am 02:15 Cloudy 44 6.6 38 3.1 79 79 WSW 16 26 29.94 1014 10 16.0934 N/A
2:35 am 02:35 Cloudy 43 6.3 37 3 80 80 WSW 18 30 29.95 1014 10 16.0934 N/A
2:55 am 02:55 Cloudy 42 5.7 37 2.7 81 81 WSW 15 24 29.97 1015 10 16.0934 N/A
3:15 am 03:15 Cloudy 42 5.4 37 2.6 82 82 WSW 16 26 29.98 1015 10 16.0934 N/A
3:35 am 03:35 Cloudy 42 5.3 37 2.6 83 83 WSW 10 17 29.99 1016 10 16.0934 N/A
3:55 am 03:55 Cloudy 41 5 37 2.7 85 85 W 12 19 29.99 1016 10 16.0934 N/A
4:15 am 04:15 Cloudy 40 4.7 36 2.3 85 85 WSW 14 22 30 1016 10 16.0934 N/A
4:35 am 04:35 Cloudy 40 4.3 36 2.1 86 86 W 10 17 30.01 1016 10 16.0934 N/A
4:55 am 04:55 Cloudy 39 4 35 1.7 85 85 W 9 15 30.02 1017 10 16.0934 N/A
5:15 am 05:15 Cloudy 38 3.3 35 1.5 88 88 W 13 20 30.04 1017 10 16.0934 N/A
5:35 am 05:35 Cloudy 38 3.2 34 1.3 88 88 W 9 15 30.05 1017 10 16.0934 N/A
5:55 am 05:55 Cloudy 37 3 34 0.9 86 86 W 9 15 30.06 1018 10 16.0934 N/A
6:15 am 06:15 Cloudy 37 2.8 33 0.8 87 87 W 7 11 30.07 1018 10 16.0934 N/A
6:35 am 06:35 Cloudy 37 2.6 33 0.8 88 88 W 7 11 30.08 1019 10 16.0934 N/A
6:55 am 06:55 Cloudy 37 2.5 33 0.7 88 88 W 5 7 30.09 1019 10 16.0934 N/A
7:15 am 07:15 Cloudy 36 2.4 33 0.7 89 89 W 5 7 30.1 1019 10 16.0934 N/A
7:35 am 07:35 Cloudy 36 2.4 33 0.7 89 89 W 6 9 30.11 1020 10 16.0934 N/A
7:55 am 07:55 Cloudy 36 2.3 33 0.4 87 87 WNW 8 13 30.12 1020 10 16.0934 N/A
8:15 am 08:15 Cloudy 36 2.2 33 0.4 88 88 WNW 6 9 30.12 1020 10 16.0934 N/A
8:35 am 08:35 Cloudy 36 2.2 33 0.4 88 88 NW 5 7 30.12 1020 10 16.0934 N/A
8:55 am 08:55 Cloudy 36 2.1 33 0.4 89 89 N N/A 30.13 1020 10 16.0934 N/A
9:15 am 09:15 Cloudy 36 2.1 33 0.5 89 89 N N/A 30.13 1020 10 16.0934 N/A
9:35 am 09:35 Mostly Cloudy 36 2 33 0.4 89 89 N N/A 30.14 1021 10 16.0934 N/A
9:55 am 09:55 Sunny 37 2.5 33 0.5 87 87 N N/A 30.13 1020 10 16.0934 N/A
10:15 am 10:15 Partly Cloudy 37 2.8 32 0.1 83 83 N N/A 30.13 1020 10 16.0934 N/A
10:35 am 10:35 Sunny 38 3.3 33 0.3 81 81 N N/A 30.12 1020 10 16.0934 N/A
10:55 am 10:55 Mostly Cloudy 38 3.6 32 0.1 78 78 N N/A 30.11 1019 10 16.0934 N/A
11:15 am 11:15 Sunny 38 3.6 31 -0.4 75 75 N N/A 30.11 1019 10 16.0934 N/A
11:35 am 11:35 Mostly Cloudy 38 3.3 31 -0.4 77 77 N N/A 30.11 1020 10 16.0934 N/A
11:55 am 11:55 Cloudy 39 3.7 32 -0.2 76 76 N N/A 30.11 1019 10 16.0934 N/A
12:15 pm 12:15 Cloudy 39 3.8 32 undefined 77 77 N N/A 30.09 1019 10 16.0934 N/A
12:35 pm 12:35 Cloudy 39 3.8 33 0.3 78 78 S 5 7 30.1 1019 10 16.0934 N/A
12:55 pm 12:55 Cloudy 38 3.5 32 0.2 79 79 S 5 7 30.1 1019 10 16.0934 N/A
1:15 pm 13:15 Cloudy 38 3.4 33 0.4 81 81 S 7 11 30.1 1019 10 16.0934 N/A
1:35 pm 13:35 Cloudy 38 3.2 33 0.5 83 83 ESE 7 11 30.1 1019 10 16.0934 N/A
1:55 pm 13:55 Cloudy 38 3.2 33 0.8 84 84 S 6 9 30.1 1019 10 16.0934 N/A
2:15 pm 14:15 Cloudy 38 3.2 34 0.9 85 85 N N/A 30.1 1019 10 16.0934 N/A
2:35 pm 14:35 Cloudy 38 3.3 34 0.9 84 84 N N/A 30.1 1019 10 16.0934 N/A
2:55 pm 14:55 Cloudy 38 3.5 34 0.9 83 83 SE 5 7 30.09 1019 10 16.0934 N/A
3:15 pm 15:15 Cloudy 38 3.5 34 0.9 83 83 N N/A 30.09 1019 10 16.0934 N/A
3:35 pm 15:35 Cloudy 38 3.5 34 1.2 85 85 N N/A 30.08 1018 10 16.0934 N/A
3:55 pm 15:55 Cloudy 38 3.6 34 1.1 84 84 SSE 3 6 30.08 1018 10 16.0934 N/A
4:15 pm 16:15 Cloudy 38 3.6 34 0.9 83 83 ESE 7 11 30.08 1018 10 16.0934 N/A
4:35 pm 16:35 Cloudy 38 3.6 34 0.9 83 83 ESE 5 7 30.07 1018 10 16.0934 N/A
4:55 pm 16:55 Cloudy 38 3.6 34 1.1 84 84 E 7 11 30.06 1018 10 16.0934 N/A
5:15 pm 17:15 Cloudy 38 3.6 34 0.9 83 83 SSE 7 11 30.07 1018 10 16.0934 N/A
5:35 pm 17:35 Cloudy 38 3.6 34 1 83 83 SE 6 9 30.07 1018 10 16.0934 N/A
5:55 pm 17:55 Cloudy 38 3.6 34 1 83 83 SE 6 9 30.07 1018 10 16.0934 N/A
6:15 pm 18:15 Cloudy 39 3.7 33 0.8 82 82 E 5 7 30.07 1018 10 16.0934 N/A
6:35 pm 18:35 Cloudy 38 3.4 34 1.2 86 86 NE 5 7 30.06 1018 10 16.0934 N/A
6:55 pm 18:55 Cloudy 38 3.5 34 1.2 85 85 NE 5 7 30.06 1018 10 16.0934 N/A
7:15 pm 19:15 Cloudy 38 3.3 35 1.4 88 88 NE 5 7 30.05 1017 10 16.0934 N/A
7:35 pm 19:35 Cloudy 38 3.3 35 1.4 88 88 N N/A 30.06 1018 10 16.0934 N/A
7:55 pm 19:55 Cloudy 38 3.4 35 1.5 88 88 E 3 6 30.05 1017 10 16.0934 N/A
8:15 pm 20:15 Cloudy 38 3.2 35 1.5 89 89 ENE 5 7 30.04 1017 10 16.0934 N/A
8:35 pm 20:35 Cloudy 38 3.2 35 1.6 89 89 N N/A 30.03 1017 10 16.0934 N/A
8:55 pm 20:55 Cloudy 38 3.1 35 1.6 90 90 N N/A 30.03 1017 10 16.0934 N/A
9:15 pm 21:15 Cloudy 38 3.3 35 1.4 88 88 N N/A 30.04 1017 10 16.0934 N/A
9:35 pm 21:35 Cloudy 37 3 35 1.8 92 92 N N/A 30.03 1017 10 16.0934 N/A
9:55 pm 21:55 Cloudy 37 3 35 1.8 92 92 N N/A 30.03 1017 10 16.0934 N/A
10:15 pm 22:15 Cloudy 37 3 35 1.7 91 91 N N/A 30.03 1017 10 16.0934 N/A
10:35 pm 22:35 Cloudy 37 3 35 1.9 93 93 N N/A 30.03 1017 10 16.0934 N/A
10:55 pm 22:55 Cloudy with Light Rain 37 2.9 35 1.9 93 93 N N/A 30.01 1016 7 11.26538 N/A
11:15 pm 23:15 Cloudy with Light Rain 37 2.8 36 2.3 97 97 N N/A 30 1016 7 11.26538 N/A
11:35 pm 23:35 Cloudy with Light Rain 37 2.8 36 2.4 97 97 N N/A 29.99 1015 10 16.0934 N/A
11:55 pm 23:55 Cloudy 37 2.8 36 2.4 97 97 NNE 3 6 29.97 1015 10 16.0934 N/A

Powered by AerisWeather